Regional Weather Roundup
Issued by NWS

Home | Current Version | Previous Version | Text Only | Print | Product List | Glossary Off
Versions: 1 2 3 4 5 6 7 8 9 10 11 12 13 14 15 16 17 18 19 20 21 22 23 24 25 26 27 28 29 30 31 32 33 34 35 36 37 38 39 40 41 42 43 44 45 46 47 48 49 50

000
ASUS43 KBIS 290810
RWRND

NORTH DAKOTA REGIONAL WEATHER ROUNDUP
NATIONAL WEATHER SERVICE BISMARCK ND
300 AM CDT SAT AUG 29 2015

NOTE: "FAIR" INDICATES FEW OR NO CLOUDS BELOW 12,000 FEET WITH NO
SIGNIFICANT WEATHER AND/OR OBSTRUCTIONS TO VISIBILITY.


NDZ001>003-009>011-017-290900-
NORTHWEST NORTH DAKOTA

CITY           SKY/WX    TMP DP  RH WIND       PRES   REMARKS
WILLISTON      CLOUDY    60  49  66 CALM      29.92F HAZE
MINOT          CLOUDY    64  57  78 SW10      29.87S
MINOT AFB      CLEAR     59  59  98 CALM      29.86S
$$

NDZ018>021-031>035-040>046-290900-
SOUTHWEST NORTH DAKOTA

CITY           SKY/WX    TMP DP  RH WIND       PRES   REMARKS
BISMARCK       PTCLDY    62  62 100 CALM      29.91S FOG
DICKINSON      CLOUDY    60  46  59 SW5       29.96S HAZE
GARRISON         N/A     58  54  86 CALM      29.90F
HETTINGER ARPT CLOUDY    53  48  83 CALM      30.01S HAZE
$$

NDZ004>008-012>016-024-026-027-054-290900-
NORTHEAST NORTH DAKOTA

CITY           SKY/WX    TMP DP  RH WIND       PRES   REMARKS
GRAND FORKS    CLEAR     63  63 100 S3        29.87S FOG
GRND FRKS AFB  CLEAR     63  63  98 SW3       29.88S
DEVILS LAKE    CLEAR     61  55  82 CALM      29.88S
$$

NDZ022-023-025-028>030-036>039-047>053-290900-
SOUTHEAST NORTH DAKOTA

CITY           SKY/WX    TMP DP  RH WIND       PRES   REMARKS
FARGO          CLEAR     67  61  81 S10       29.92S
JAMESTOWN      CLEAR     65  63  93 S5        29.90F
$$



USA.gov is the U.S. government's official web portal to all federal, state and local government web resources and services.